TimeAKDT,TemperatureF,Dew PointF,Humidity,Sea Level PressureIn,VisibilityMPH,Wind Direction,Wind SpeedMPH,Gust SpeedMPH,PrecipitationIn,Events,Conditions,WindDirDegrees,DateUTC
12:53 AM,-9.0,-18.0,65,30.12,10.0,Calm,Calm,-,N/A,,Mostly Cloudy,0,2013-03-25 08:53:00
1:53 AM,-7.1,-17.0,62,30.11,10.0,Calm,Calm,-,N/A,,Mostly Cloudy,0,2013-03-25 09:53:00
2:53 AM,-7.1,-16.1,65,30.11,10.0,Calm,Calm,-,N/A,,Overcast,0,2013-03-25 10:53:00
3:53 AM,-7.1,-16.1,65,30.10,10.0,North,4.6,-,N/A,,Overcast,360,2013-03-25 11:53:00
4:53 AM,-9.0,-18.0,65,30.10,10.0,North,3.5,-,N/A,,Mostly Cloudy,10,2013-03-25 12:53:00
5:53 AM,-11.0,-20.0,64,30.09,10.0,Calm,Calm,-,N/A,,Mostly Cloudy,0,2013-03-25 13:53:00
5:55 AM,-11.0,-20.0,64,30.09,10.0,Calm,Calm,-,N/A,,Mostly Cloudy,0,2013-03-25 13:55:00
6:53 AM,-11.9,-20.0,67,30.08,10.0,NW,6.9,-,N/A,,Mostly Cloudy,320,2013-03-25 14:53:00
7:53 AM,-14.1,-20.9,71,30.08,10.0,Calm,Calm,-,N/A,,Mostly Cloudy,0,2013-03-25 15:53:00
8:53 AM,-13.0,-20.9,68,30.07,10.0,NNW,11.5,-,N/A,,Mostly Cloudy,340,2013-03-25 16:53:00
9:53 AM,-11.0,-20.0,64,30.07,10.0,NNE,5.8,-,N/A,,Clear,30,2013-03-25 17:53:00
10:53 AM,-9.0,-18.9,62,30.06,10.0,West,5.8,-,N/A,,Clear,280,2013-03-25 18:53:00
11:53 AM,-6.0,-16.1,62,30.07,10.0,Calm,Calm,-,N/A,,Clear,0,2013-03-25 19:53:00
12:53 PM,-5.1,-16.1,59,30.06,10.0,West,5.8,-,N/A,,Clear,270,2013-03-25 20:53:00
1:53 PM,-4.0,-16.1,56,30.06,10.0,SSW,3.5,-,N/A,,Clear,210,2013-03-25 21:53:00
2:53 PM,-2.0,-13.0,60,30.06,10.0,West,8.1,-,N/A,,Clear,270,2013-03-25 22:53:00
3:53 PM,-0.9,-11.9,60,30.06,10.0,West,4.6,-,N/A,,Clear,280,2013-03-25 23:53:00
4:53 PM,-0.0,-11.9,57,30.05,10.0,NW,4.6,-,N/A,,Scattered Clouds,310,2013-03-26 00:53:00
5:53 PM,-4.0,-11.0,72,30.04,10.0,WNW,19.6,-,N/A,,Scattered Clouds,290,2013-03-26 01:53:00
6:53 PM,-2.9,-11.9,65,30.06,10.0,WNW,12.7,-,N/A,,Scattered Clouds,290,2013-03-26 02:53:00
7:53 PM,-4.0,-14.1,62,30.05,10.0,North,6.9,-,N/A,,Scattered Clouds,360,2013-03-26 03:53:00
8:53 PM,-6.0,-16.1,62,30.05,10.0,NNW,11.5,-,N/A,,Scattered Clouds,330,2013-03-26 04:53:00
9:53 PM,-6.0,-16.1,62,30.06,10.0,North,3.5,-,N/A,,Scattered Clouds,350,2013-03-26 05:53:00
10:53 PM,-9.0,-17.0,68,30.06,10.0,Calm,Calm,-,N/A,,Scattered Clouds,0,2013-03-26 06:53:00
11:53 PM,-11.0,-18.0,71,30.06,10.0,West,5.8,-,N/A,,Partly Cloudy,280,2013-03-26 07:53:00